(68617) = 2000 VA61 = 2002 AL159

Discovered at Socorro on 2002-01-13 by LINEAR.

Orbit

Orbit type: Main Belt

Note: WebGL enabled browser required.

epoch2023-09-13.0
epoch JD2460200.5
perihelion date2022-02-03.74270
perihelion JD2459614.24270
argument of perihelion (°)30.72846
ascending node (°)219.43490
inclination (°)0.62894
eccentricity0.1473220
perihelion distance (AU)2.0736685
Tisserand w.r.t. Jupiter3.5
ΔV w.r.t. Earth (km/sec)9.0
semimajor axis (AU)2.4319479
mean anomaly (°)152.35640
mean daily motion (°/day)0.25987980
aphelion distance (AU)2.790
period (years)3.79
P-vector [x]-0.33935915
P-vector [y]-0.86525154
P-vector [z]-0.36901915
Q-vector [x]0.94063104
Q-vector [y]-0.31505459
Q-vector [z]-0.12630855
absolute magnitude16.21
phase slope0.15
uncertainty0
referenceMPEC 2024-A55
observations used806
oppositions19
arc length (days)10450
first opposition used1995
last opposition used2024
residual rms (arc-secs)0.68
perturbers coarse indicatorM-v
perturbers precise indicator003Ek
first observation date used1995-05-26.0
last observation date used2024-01-04.0
computer nameMPCLINUX
JD of orbit computation2456877.742547
perihelion JD uncertainty (days)6.5536E-05
argument of perihelion uncertainty (°)3.7244E-04
ascending node uncertainty (°)3.7191E-04
inclination uncertainty (°)4.4394E-06
eccentricity uncertainty 3.5109E-08
perihelion distance uncertainty (AU)8.4522E-08
Minimum Orbit Intersection Distances (in AU)
for orbit epoch: 2460200.5, reference: E2024-A55
Mercury1.6085
Venus1.34798
Earth1.05879
Mars0.53375
Jupiter2.23249
Saturn6.27486
Uranus15.9932
Neptune27.1031

Observations

817 total observations over interval: 1995 05 26.27782 – 2024 01 04.417926
These data are available for download (format description).

Date (UT) J2000 RA J2000 Dec Magn Location Ref
1995 05 26.27782 14 13 57.08 -13 15 25.3   691 – Steward Observatory, Kitt Peak-Spacewatch MPS 52538
1995 05 26.30011 14 13 56.29 -13 15 20.9 18.7 V 691 – Steward Observatory, Kitt Peak-Spacewatch MPS 52538
1995 05 26.32439 14 13 55.61 -13 15 17.1   691 – Steward Observatory, Kitt Peak-Spacewatch MPS 52538
2000 11 02.23311 02 30 16.03 +14 48 05.1 19.7   704 – Lincoln Laboratory ETS, New Mexico MPS 22794
2000 11 02.26022 02 30 14.36 +14 47 56.2 19.7   704 – Lincoln Laboratory ETS, New Mexico MPS 22794
2000 11 02.27431 02 30 13.49 +14 47 52.4 19.9   704 – Lincoln Laboratory ETS, New Mexico MPS 22794
2000 11 03.27789 02 29 14.48 +14 42 54.1 19.6 V 691 – Steward Observatory, Kitt Peak-Spacewatch MPS 22794
2000 11 03.29946 02 29 13.19 +14 42 47.8 19.8 V 691 – Steward Observatory, Kitt Peak-Spacewatch MPS 22794
2000 11 03.32097 02 29 11.88 +14 42 41.5 19.9 V 691 – Steward Observatory, Kitt Peak-Spacewatch MPS 22794
2000 11 30.20321 02 07 16.85 +12 46 35.7 20.9 V 691 – Steward Observatory, Kitt Peak-Spacewatch MPS 49272
2000 11 30.22451 02 07 16.09 +12 46 31.5 20.6 V 691 – Steward Observatory, Kitt Peak-Spacewatch MPS 49272
2000 11 30.24724 02 07 15.31 +12 46 27.3 20.6 V 691 – Steward Observatory, Kitt Peak-Spacewatch MPS 49272
2002 01 13.38103 09 24 50.70 +14 10 38.2 19.8   704 – Lincoln Laboratory ETS, New Mexico MPS 47511
2002 01 13.39624 09 24 50.11 +14 10 41.0 19.7   704 – Lincoln Laboratory ETS, New Mexico MPS 47511
2002 01 13.41144 09 24 49.41 +14 10 45.4 20.5   704 – Lincoln Laboratory ETS, New Mexico MPS 47511
2002 01 13.42663 09 24 48.70 +14 10 47.1 19.9   704 – Lincoln Laboratory ETS, New Mexico MPS 47511
2002 01 13.44183 09 24 48.06 +14 10 49.8 20.0   704 – Lincoln Laboratory ETS, New Mexico MPS 47511
2002 01 19.39897 09 20 05.46 +14 31 38.9 19.3   704 – Lincoln Laboratory ETS, New Mexico MPS 47511
2002 01 19.41413 09 20 04.69 +14 31 42.2 19.7   704 – Lincoln Laboratory ETS, New Mexico MPS 47511
2002 01 19.42928 09 20 03.86 +14 31 46.1 19.4   704 – Lincoln Laboratory ETS, New Mexico MPS 47511
2002 01 19.44444 09 20 03.09 +14 31 49.3 19.3   704 – Lincoln Laboratory ETS, New Mexico MPS 47511
2002 01 26.36039 09 13 44.13 +14 59 45.8 19.5   644 – Palomar Mountain/NEAT MPS 47511
2002 01 26.37690 09 13 43.15 +14 59 49.9 19.4   644 – Palomar Mountain/NEAT MPS 47511
2002 01 26.39196 09 13 42.27 +14 59 53.9 19.5   644 – Palomar Mountain/NEAT MPS 47511
2002 02 03.52372 09 05 32.86 +15 35 34.2 19.7   608 – Haleakala-AMOS MPS 50002
2002 02 03.53419 09 05 32.19 +15 35 36.8 19.8   608 – Haleakala-AMOS MPS 50002
2002 02 03.54440 09 05 31.54 +15 35 39.5 19.9   608 – Haleakala-AMOS MPS 50002
2002 02 05.29921 09 03 43.52 +15 43 28.4 19.7   644 – Palomar Mountain/NEAT MPS 50002
2002 02 05.32028 09 03 42.17 +15 43 33.8 20.2   644 – Palomar Mountain/NEAT MPS 50002
2002 02 05.34147 09 03 40.82 +15 43 39.6 19.4   644 – Palomar Mountain/NEAT MPS 50002
2002 02 07.31247 09 01 39.07 +15 52 25.3 19.0   704 – Lincoln Laboratory ETS, New Mexico MPS 50002
2002 02 07.35578 09 01 36.32 +15 52 36.1 20.1   704 – Lincoln Laboratory ETS, New Mexico MPS 50002
2002 02 07.37037 09 01 35.39 +15 52 39.9 19.5   704 – Lincoln Laboratory ETS, New Mexico MPS 50002
2002 02 07.53196 09 01 25.26 +15 53 23.2 20.3   608 – Haleakala-AMOS MPS 50002
2002 02 07.54299 09 01 24.60 +15 53 26.1 20.5   608 – Haleakala-AMOS MPS 50002
2002 02 07.55374 09 01 23.88 +15 53 28.6 20.5   608 – Haleakala-AMOS MPS 50002
2002 02 08.21095 09 00 43.93 +15 56 21.6 19.2 V 333 – Desert Eagle Observatory MPS 50002
2002 02 08.23137 09 00 42.55 +15 56 27.1 19.4 V 333 – Desert Eagle Observatory MPS 50002
2002 02 08.25330 09 00 41.08 +15 56 33.3 19.6 V 333 – Desert Eagle Observatory MPS 50002
2002 02 11.23636 08 57 39.12 +16 09 32.5 19.6   704 – Lincoln Laboratory ETS, New Mexico MPS 50002
2002 02 11.25049 08 57 38.26 +16 09 36.3 19.8   704 – Lincoln Laboratory ETS, New Mexico MPS 50002
2002 02 11.26461 08 57 37.34 +16 09 40.3 20.1   704 – Lincoln Laboratory ETS, New Mexico MPS 50002
2002 02 11.27873 08 57 36.53 +16 09 43.1 19.4   704 – Lincoln Laboratory ETS, New Mexico MPS 50002
2002 02 11.29285 08 57 35.60 +16 09 46.9 19.7   704 – Lincoln Laboratory ETS, New Mexico MPS 50002
2002 02 13.23778 08 55 39.03 +16 18 04.5 19.8   704 – Lincoln Laboratory ETS, New Mexico MPS 52538
2002 02 13.28224 08 55 36.25 +16 18 16.3 19.7   704 – Lincoln Laboratory ETS, New Mexico MPS 52538
2002 02 13.29727 08 55 35.28 +16 18 19.9 19.6   704 – Lincoln Laboratory ETS, New Mexico MPS 52538
2002 02 21.29011 08 48 07.07 +16 49 54.0 20.1   704 – Lincoln Laboratory ETS, New Mexico MPS 52538
2002 02 21.31240 08 48 05.93 +16 49 59.2 19.3   704 – Lincoln Laboratory ETS, New Mexico MPS 52538
2002 02 21.34069 08 48 04.43 +16 50 05.5 19.5   704 – Lincoln Laboratory ETS, New Mexico MPS 52538
2002 03 13.12705 08 35 45.66 +17 42 55.9 19.3   704 – Lincoln Laboratory ETS, New Mexico MPS 52538
2002 03 13.13977 08 35 45.31 +17 42 56.1 20.4   704 – Lincoln Laboratory ETS, New Mexico MPS 52538
2002 03 13.15280 08 35 45.09 +17 42 58.4 20.1   704 – Lincoln Laboratory ETS, New Mexico MPS 52538
2002 03 13.16571 08 35 44.82 +17 42 59.4 19.8   704 – Lincoln Laboratory ETS, New Mexico MPS 52538
2002 03 13.17863 08 35 44.51 +17 43 01.7 20.1   704 – Lincoln Laboratory ETS, New Mexico MPS 52538
2003 07 02.32169 20 39 49.58 -17 16 32.0 18.8   704 – Lincoln Laboratory ETS, New Mexico MPS 81897
2003 07 02.33163 20 39 49.26 -17 16 32.9 19.4   704 – Lincoln Laboratory ETS, New Mexico MPS 81897
2003 07 02.34160 20 39 48.81 -17 16 34.2 19.2   704 – Lincoln Laboratory ETS, New Mexico MPS 81897
2003 07 02.35151 20 39 48.40 -17 16 36.0 19.4   704 – Lincoln Laboratory ETS, New Mexico MPS 81897
2003 07 02.36135 20 39 48.00 -17 16 37.7 19.4   704 – Lincoln Laboratory ETS, New Mexico MPS 81897
2003 08 01.52363 20 13 23.44 -18 44 18.7 20.4   608 – Haleakala-AMOS MPS 84944
2003 08 01.53419 20 13 22.80 -18 44 19.6 19.7   608 – Haleakala-AMOS MPS 84944
2003 08 01.54474 20 13 22.22 -18 44 22.7 20.7   608 – Haleakala-AMOS MPS 84944
2003 08 04.28153 20 10 53.45 -18 52 34.3 19.3   704 – Lincoln Laboratory ETS, New Mexico MPS 82669
2003 08 04.29209 20 10 52.85 -18 52 36.3 19.4   704 – Lincoln Laboratory ETS, New Mexico MPS 82669
2003 08 04.30266 20 10 52.22 -18 52 37.8 19.6   704 – Lincoln Laboratory ETS, New Mexico MPS 82669
2003 08 04.31307 20 10 51.59 -18 52 39.1 19.3   704 – Lincoln Laboratory ETS, New Mexico MPS 82669
2003 08 04.32349 20 10 51.09 -18 52 41.2 19.2   704 – Lincoln Laboratory ETS, New Mexico MPS 82669
2003 08 22.27310 19 58 18.68 -19 34 34.2 20.6   608 – Haleakala-AMOS MPS 83321
2003 08 22.28358 19 58 18.35 -19 34 35.8 20.5   608 – Haleakala-AMOS MPS 83321
2003 08 22.29435 19 58 17.95 -19 34 36.4 20.7   608 – Haleakala-AMOS MPS 83321
2004 11 15.85920 03 53 37.95 +19 57 29.0 19.3 R 185 – Observatoire Astronomique Jurassien-Vicques MPS 120238
2004 11 20.89026 03 48 24.40 +19 40 31.1 19.1 R 599 – Campo Imperatore-CINEOS MPS 120986
2004 11 20.89957 03 48 23.80 +19 40 29.1 19.0 R 599 – Campo Imperatore-CINEOS MPS 120986
2004 11 20.90883 03 48 23.23 +19 40 27.1 18.9 R 599 – Campo Imperatore-CINEOS MPS 120986
2004 11 20.91660 03 48 22.68 +19 40 25.2 18.9 R 599 – Campo Imperatore-CINEOS MPS 120986
2006 01 04.45625 11 09 12.92 +04 34 53.7 20.2 V G96 – Mt. Lemmon Survey MPS 158543
2006 01 04.46372 11 09 13.03 +04 34 52.7 20.2 V G96 – Mt. Lemmon Survey MPS 158543
2006 01 04.47113 11 09 13.21 +04 34 51.7 19.9 V G96 – Mt. Lemmon Survey MPS 158543
2006 01 04.47856 11 09 13.28 +04 34 51.3 20.4 V G96 – Mt. Lemmon Survey MPS 158543
2006 01 22.99559 11 10 06.91 +04 24 22.6 19.8 V A13 – Observatoire Naef, Ependes MPS 161335
2006 01 23.02903 11 10 06.49 +04 24 23.6 19.2 V A13 – Observatoire Naef, Ependes MPS 161335
2006 01 23.49029 11 10 00.26 +04 24 56.6 20.1 V G96 – Mt. Lemmon Survey MPS 161335
2006 01 23.49925 11 10 00.12 +04 24 57.4 20.1 V G96 – Mt. Lemmon Survey MPS 161335
2006 01 23.50825 11 09 59.97 +04 24 58.2 19.8 V G96 – Mt. Lemmon Survey MPS 161335
2006 01 23.51725 11 09 59.86 +04 24 59.0 19.9 V G96 – Mt. Lemmon Survey MPS 161335
2006 01 26.42505 11 09 13.81 +04 29 09.6 19.8 V 691 – Steward Observatory, Kitt Peak-Spacewatch MPS 161335
